Regional Weather Roundup
Issued by NWS Northern Indiana

Home | Current Version | Previous Version | Graphics & Text | Print | Product List | Glossary On
Versions: 1 2 3 4 5 6 7 8 9 10 11 12 13 14 15 16 17 18 19 20 21 22 23 24 25 26 27 28 29 30 31 32 33 34 35 36 37 38 39 40 41 42 43 44 45 46 47 48 49 50
000
ASUS43 KIWX 250310
RWRIWX

KIWX WEATHER ROUNDUP
NATIONAL WEATHER SERVICE NORTHERN INDIANA
1100 PM EDT WED AUG 24 2016

NOTE: "FAIR" INDICATES FEW OR NO CLOUDS BELOW 12,000 FEET WITH NO
SIGNIFICANT WEATHER AND/OR OBSTRUCTIONS TO VISIBILITY.

* THESE STATIONS ARE NOT UNDER NWS QUALITY CONTROL. THEY ALSO MAY NOT
  REPORT WEATHER SUCH AS PRECIPITATION OR FOG.

INZ001>027-250400-
NORTHERN INDIANA

CITY           SKY/WX    TMP DP  RH WIND       PRES   REMARKS
GARY*          MOCLDY    77  73  88 SW6       29.98S
VALPARAISO     CLEAR     73  69  87 SW6       29.99F
MICHIGAN CITY* CLEAR     72  72 100 MISG      29.99S
LAPORTE*       CLEAR     75  75 100 SW7       29.99F
KNOX*          CLEAR     70  54  56 SW5       29.99F
SOUTH BEND     CLEAR     73  70  90 SW7       29.99S
GOSHEN         CLEAR     72  69  90 SW7       29.99S
MONTICELLO*    CLEAR     73  66  79 W3        30.01S
LOGANSPORT*    CLEAR     70  68  94 W5        30.02S
ROCHESTER*     CLEAR     73  72  94 W3        30.01S
WARSAW*        CLEAR     72  72 100 SW5       30.00S
ANGOLA*        CLEAR     73  68  83 W7        29.99S
FORT WAYNE     PTCLDY    73  71  93 W7        30.00S
HUNTINGTON*    CLEAR    N/A N/A N/A W5        30.00F
PERU/GRISSOM   CLEAR     71  71 100 SW5       30.00S
MARION*        MOCLDY    72  72  98 CALM      30.03R

$$
INZ028>050-250400-
CENTRAL INDIANA

CITY           SKY/WX    TMP DP  RH WIND       PRES   REMARKS
LAFAYETTE      CLEAR     71  71 100 CALM      30.01S
MUNCIE*        CLOUDY    77  74  90 NW8       30.04R
INDIANAPOLIS   MOCLDY    79  75  87 SW9       30.03S

$$
MIZ043>046-050>051-056>058-064>065-071>073-077>080-250400-
SOUTHWEST LOWER MICHIGAN

CITY           SKY/WX    TMP DP  RH WIND       PRES   REMARKS
BATTLE CREEK   MOCLDY    71  71 100 S5        29.98S
BENTON HARBOR  CLEAR     74  70  87 CALM      29.97S
COLDWATER*     CLEAR     72  72  99 SW6       29.98S
HILLSDALE*     CLEAR     72  70  95 SW3       29.98S
HOLLAND        MOCLDY    73  71  93 SW3       29.96S
GRAND RAPIDS   PTCLDY    74  70  87 W3        29.96S
KALAMAZOO      PTCLDY    74  70  87 W3        29.97S
STURGIS*       MOCLDY    72  69  91 SW3       29.98F
THREE RIVERS*  FAIR      73  72  97 SW3       29.98S

$$
OHZ001>008-015>018-024>025-250400-
NORTHWEST OHIO

CITY           SKY/WX    TMP DP  RH WIND       PRES   REMARKS
WAUSEON*       FAIR      72  70  94 SW6       29.98S
DEFIANCE       CLEAR     74  71  91 SW6       29.99R
FINDLAY        CLOUDY    76  71  85 SW3       29.98F
TOLEDO EXPRESS CLOUDY    72  72 100 SW8       29.97R
TOLEDO METCALF CLOUDY    74  73  97 SW14      29.97R
LIMA           LGT RAIN  74  74 100 SW13      30.01F

$$
AND FOR LAKE MICHIGAN COASTAL AND OPEN LAKE BUOY OBSERVATIONS

STATION/POSITION TEMP    WIND        PRES    VSBY  WAVE
                 AIR SEA DIR/SP/G                  HT/PER
                 (F)     (DEG/KT/KT) (MB)    (MI)  (FT/S)
CALUMET HARBOR    79                 1014.6R
MICHIGAN CITY     77     180/ 10/ 12   N/A
BURNS HARBOR      78     210/ 11/ 13 1015.6R
SAINT JOSEPH      75     210/  4/  5 1015.6R
SOUTH LAKE BUOY   75 75  190/ 10/ 12 1013.3R         1/ 4
4 MI NW BRIDGMAN  76 75  230/  8/ 10 1014.4S         1/ 3
MICHIGAN CITY     75 73  210/  8/  8   N/A           1/ 3

$$
&&




USA.gov is the U.S. government's official web portal to all federal, state and local government web resources and services.